Regional Weather Roundup
Issued by NWS

Home | Current Version | Previous Version | Graphics & Text | Print | Product List | Glossary On
Versions: 1 2 3 4 5 6 7 8 9 10 11 12 13 14 15 16 17 18 19 20 21 22 23 24 25 26 27 28 29 30 31 32 33 34 35 36 37 38 39 40 41 42 43 44 45 46 47 48 49 50
000
ASUS43 KOAX 190302
RWRNE

WEATHER ROUNDUP FOR NEBRASKA
NATIONAL WEATHER SERVICE OMAHA NE
1000 PM CDT SAT APR 18 2015

NOTES: SATELLITE DATA IS BEING USED TO AUGMENT CLOUD COVER ABOVE
       12000 FEET.
       "FAIR" INDICATES FEW OR NO CLOUDS BELOW 12,000 FEET WITH NO
       SIGNIFICANT WEATHER AND/OR OBSTRUCTIONS TO VISIBILITY.

  * THESE STATIONS DO NOT REPORT WEATHER SUCH AS RAIN...SNOW OR FOG.

NEZ001>004-019>022-054>056-190400-
NEBRASKA PANHANDLE

CITY           SKY/WX    TMP DP  RH WIND       PRES   REMARKS
SCOTTSBLUFF    CLOUDY    49 N/A N/A NW12      29.94R
ALLIANCE       CLOUDY    47  42  83 N14       29.91R
CHADRON        CLOUDY    48  44  86 N9        29.95R
SIDNEY         LGT RAIN  46  40  79 N13G24    29.91R
$$

NEZ057>060-069>072-079>082-190400-
SOUTHWEST NEBRASKA

CITY           SKY/WX    TMP DP  RH WIND       PRES   REMARKS
NORTH PLATTE   RAIN      51  46  83 CALM      29.87R
IMPERIAL       CLOUDY    50  43  77 N15       29.83R
LEXINGTON      HVY RAIN  54  49  85 E6G13     29.85R
MCCOOK         CLOUDY    53  47  79 E7        29.81R
$$

NEZ005>010-023>029-035>040-094-190400-
NORTH CENTRAL NEBRASKA

CITY           SKY/WX    TMP DP  RH WIND       PRES   REMARKS
VALENTINE      CLOUDY    54  49  83 N8        29.86R
AINSWORTH      CLOUDY    55  53  94 N7        29.85R
BROKEN BOW     CLOUDY    60  49  66 S23G31    29.82R
ORD            CLOUDY    61  56  83 E13G21    29.75F
$$

NEZ041-046>049-061>064-073>077-083>087-190400-
SOUTH CENTRAL NEBRASKA

CITY           SKY/WX    TMP DP  RH WIND       PRES   REMARKS
GRAND ISLAND   LGT RAIN  54  48  80 SW21G29   29.83F
HASTINGS       LGT RAIN  53  49  86 NW9       29.86R
KEARNEY *      CLOUDY    54  46  76 E16       29.86R
YORK           CLOUDY    57  50  77 W12       29.84R
$$

NEZ011>018-030>034-042>045-190400-
NORTHEAST NEBRASKA

CITY           SKY/WX    TMP DP  RH WIND       PRES   REMARKS
BLAIR          MOCLDY    56  54  92 S5        29.82S
COLUMBUS *     CLOUDY    61  52  72 SE9       29.84R
FREMONT        MOCLDY    59  56  89 SE8       29.83S
TEKAMAH        MOCLDY    56  54  93 S7        29.82S
$$

NEZ050>053-065>068-078-088>093-190400-
SOUTHEAST NEBRASKA

CITY           SKY/WX    TMP DP  RH WIND       PRES   REMARKS
LINCOLN        MOCLDY    60  56  86 SE8       29.83R
OMAHA EPPLEY   MOCLDY    55  54  96 SE7       29.81F
FALLS CITY     MOCLDY    57  55  93 CALM      29.82S
PLATTSMOUTH    CLOUDY    58  55  89 SE5       29.82F
$$

NEZ044-045-051>053-067-190400-
OMAHA AREA

CITY           SKY/WX    TMP DP  RH WIND       PRES   REMARKS
OMAHA EPPLEY   MOCLDY    55  54  96 SE7       29.81F
BLAIR          MOCLDY    56  54  92 S5        29.82S
FREMONT        MOCLDY    59  56  89 SE8       29.83S
OFFUTT AFB     MOCLDY    56  55  95 SE7       29.81F
PLATTSMOUTH    CLOUDY    58  55  89 SE5       29.82F
$$


USA.gov is the U.S. government's official web portal to all federal, state and local government web resources and services.